Tracking 25686 objects as of 25-May-2022
HD Live streaming from Space Station
objects crossing your sky now

SL-14 DEB

Track SL-14 DEB now!
10-day predictions


NORAD ID: 26008
Int'l Code: 1991-068T
Perigee: 1,346.2 km
Apogee: 1,488.5 km
Inclination: 82.6 °
Period: 114.0 minutes
Semi major axis: 7788 km
RCS: 0.1445 m2 (medium)
Launch date: September 28, 1991
Source: Commonwealth of Independent States (former USSR) (CIS)
Launch site: PLESETSK MISSILE AND SPACE COMPLEX (PKMTR)

Note: This is SATELLITE DEBRIS
aabbcc
Your satellite tracking list
Your tracking list is empty




NASA's NSSDC Master Catalog

Two Line Element Set (TLE):
1 26008U 91068T   22144.78418472  .00000013  00000-0  11904-4 0  9997
2 26008  82.6293 251.3836 0091332 209.7863 270.7109 12.63097349 42870
Source of the keplerian elements: AFSPC